Regional Weather Roundup
Issued by NWS Charleston, WV

Home | Current Version | Previous Version | Text Only | Print | Product List | Glossary Off
Versions: 1 2 3 4 5 6 7 8 9 10 11 12 13 14 15 16 17 18 19 20 21 22 23 24 25 26 27 28 29 30 31 32 33 34 35 36 37 38 39 40 41 42 43 44 45

000
ASUS41 KRLX 040610
RWRRLX
West Virginia Regional Weather Roundup
National Weather Service Charleston WV
200 AM EDT TUE AUG 04 2015

Note: "fair" indicates few or no clouds below 12,000 feet with no
significant weather and/or obstructions to visibility.

WVZ003-040700-
Northern Panhandle of West Virginia

CITY           SKY/WX    TMP DP  RH WIND       PRES   REMARKS
WHEELING       PTCLDY    66  61  84 W6        29.90R
$$

WVZ009-040700-
Northwest West Virginia

CITY           SKY/WX    TMP DP  RH WIND       PRES   REMARKS
PARKERSBURG    CLEAR     72  66  81 W6        29.94R
$$

WVZ006-040700-
Western West Virginia

CITY           SKY/WX    TMP DP  RH WIND       PRES   REMARKS
HUNTINGTON     PTCLDY    65  62  90 SW3       29.93F
$$

WVZ015-040700-
West Central West Virginia

CITY           SKY/WX    TMP DP  RH WIND       PRES   REMARKS
CHARLESTON     PTCLDY    72  58  61 SW9       29.93R
$$

WVZ022-031-040700-
North Central West Virginia

CITY           SKY/WX    TMP DP  RH WIND       PRES   REMARKS
CLARKSBURG     MOCLDY    73  67  81 SW6       29.89S
MORGANTOWN     PTCLDY    71  64  78 CALM      29.90F
$$

WVZ025-035-042-045-040700-
Southern West Virginia

CITY           SKY/WX    TMP DP  RH WIND       PRES   REMARKS
BECKLEY        CLOUDY    65  58  78 SW8       30.03F
LOGAN            N/A     68  63  83 CALM      29.93F
BLUEFIELD      CLOUDY    70  58  65 W8        30.08S
LEWISBURG      CLOUDY    73  59  62 SW3       30.01F
$$

WVZ047-040700-
Northern Mountains of West Virginia

CITY           SKY/WX    TMP DP  RH WIND       PRES   REMARKS
ELKINS         MOCLDY    69  63  81 CALM      29.94F
$$

WVZ052-040700-
Eastern Panhandle of West Virginia

CITY           SKY/WX    TMP DP  RH WIND       PRES   REMARKS
MARTINSBURG    MOCLDY    71  64  78 S3        29.85S
PETERSBURG     MOCLDY    69  62  78 E3        29.87F
$$



USA.gov is the U.S. government's official web portal to all federal, state and local government web resources and services.